Вернуться в каталог

STARLINK-33766

АктивенСвязьVLEO
NORAD 63472·PAYLOAD·🇺🇸 United States

Запущен Apr 6, 2025 с Cape Canaveral Space Force Station

Loading…

Ближайшие Пролёты (ближайшие 24 часа)

TLE

СвежийSource: CelesTrak SupGP

Эпоха: Sep 14, 2026, 20:41 UTC

1 63472C 25070N   26257.86229167  .00011761  00000+0  42612-3 0  2579
2 63472  43.0001 271.8043 0001473 265.8460 102.6910 15.27562453    13

Отслеживайте STARLINK-33766 в реальном времени с AllMySat

Download on the App Store